Regional Weather Roundup
Issued by NWS Midland/Odessa, TX

Skip options and go directly to product.
Home | Oldest Version | Previous Version | Current Version | All | Graphics & Text | Save Text | Print | Product List | Glossary On

Skip product version selection by date and time.   
693
ASUS44 KMAF 311110
RWRMAF
MIDLAND AREA WEATHER ROUNDUP
NATIONAL WEATHER SERVICE MIDLAND TX
600 AM CDT FRI JUL 31 2015

...IN SOUTHWEST TEXAS AND SOUTHEAST NEW MEXICO...

CITY           SKY/WX    TMP DP  RH WIND       PRES   REMARKS
ALPINE         CLEAR     61  51  70 SW3       30.31R
ANDREWS        FAIR      75  51  43 SW6       30.18S
ARTESIA        PTCLDY    70  66  88 N10       30.23F
BIG SPRING     CLEAR     73  52  47 SE6       30.17R
CARLSBAD       PTCLDY    74  64  71 NW12      30.19S
DRYDEN           N/A     75  53  46 N5        30.10S
FORT STOCKTON  CLEAR     73  50  44 S8        30.15S
GUAD PASS      MOCLDY    72  49  44 NE16      30.33S
HOBBS          PTCLDY    68  63  83 CALM      30.22S
MARFA          CLEAR     59  52  77 NE5       30.28S
MIDLAND AIRPK  CLEAR     78  54  44 CALM      30.16S
MIDLAND INTL   CLEAR     78  52  40 S6        30.15S
ODESSA         CLEAR     76  50  40 SW3       30.17S
PECOS          CLEAR     71  47  42 E6        30.12S
PRESIDIO       FAIR      81  52  36 N10       30.13R
SEMINOLE       PTCLDY    74  59  59 CALM      30.20S
SNYDER         PTCLDY    75  63  66 S3        30.15R
WINK           PTCLDY    73  50  44 E6        30.14S
$$
...OTHER STATIONS IN TEXAS...

CITY           SKY/WX    TMP DP  RH WIND       PRES   REMARKS
ABILENE        CLEAR     76  63  64 SE6       30.11R
AMARILLO       FOG       69  68  96 E10       30.25R VSB 1
AUSTIN         MOCLDY    78  71  79 W5        30.01F
BROWNSVILLE    PTCLDY    75  75 100 CALM      29.99S
CORPUS CHRISTI MOCLDY    76  72  87 SW3       29.98F
DALLAS FTW     PTCLDY    82  71  69 E7        30.05S
DEL RIO        CLEAR     77  62  59 E5        30.03S
EL PASO        CLOUDY    74  67  78 CALM      30.22S
HOUSTON INT    MOCLDY    80  76  87 N5        29.99R
LUBBOCK        MOCLDY    73  69  87 E7        30.20S
SAN ANGELO     CLEAR     71  56  58 S5        30.10S
SAN ANTONIO    MOCLDY    83  64  52 W5        30.04S
WACO           CLEAR     77  70  79 NE5       30.04S
WICHITA FALLS  NOT AVBL
$$
...OTHER LOCATIONS IN NEW MEXICO...

CITY           SKY/WX    TMP DP  RH WIND       PRES   REMARKS
ALAMAGORDO     LGT RAIN  70  63  78 NW6       30.26S
ALBUQUERQUE    CLOUDY    68  60  75 N7        30.35R
CANNON AFB     CLOUDY    68  63  84 N8        30.30R
CLOVIS         CLOUDY    66  63  88 N10       30.32S
HOLLOMAN AFB   CLOUDY    74  61  62 N3        30.24S
ROSWELL        PTCLDY    70  64  81 N8        30.23F
RUIDOSO          N/A    N/A N/A N/A MISG        N/A
SANTA FE       CLOUDY    63  58  83 SE5       30.42R
TRUTH OR CONSE LGT RAIN  68  64  87 CALM      30.31R
TUCUMCARI      LGT RAIN  68  66  93 SW7       30.29S
$$

USA.gov is the U.S. government's official web portal to all federal, state and local government web resources and services.